Погода в Угуте

Погода в Угуте : погода сейчас, прогноз погоды и архив. Всё, что Вы хотите узнать о погоде в Угуте!

Поиск расширенной информации на нашем сайте:

Другие новости

Новости СМИ2

Главная страница сайта

Новости сайта

03.07.2017

Напоминаем, что на нашем специализированном сайте Метеоцентр.Азия вы можете получить высокодетализированные автоматические прогнозы погоды по пунктам России, СНГ и мира в авиационном формате (включающие направление и скорость ветра, видимость, явления погоды, количество и форму облачности, нижнюю и верхнюю границу облачности).

Рекомендуем: строительство каркасных домов Екатеринбург

Погода в Угуте - сегодня

Время (UTC), дата Ветер
(°,м/с) 
Видим.   Явления Облачность Т
(°С)
Тd
(°С)
f(%) Тe
(°С)
Pmin
(гПа)
dP
(гПа)
Po
(мм)
O2
(г/м3)
Тmin Tmax R s Состояние
почвы
09 09.12.17 090 (В) 10 км    9/0 средняя, верхняя 
[Ac trans|Ci fib]
-11.1 -14.4 77 -13  1022.1  -2.5  762  321           
12 09.12.17 110 (В) 10 км    9/0 средняя, верхняя 
[Ac trans|Ci fib]
-11.1 -13.3 84 -13  1020.8  -1.3  761  321           
15 09.12.17 090 (В) 10 км    10/0 верхняя 
[Cs]
-11.8 -14.2 82 -14  1018  -2.9  758  321    -10.8       
18 09.12.17 100 (В) 10 км    3/0 верхняя 
[Ci fib]
-13.4 -15.4 85 -16  1017.4  -0.6  758  323           
21 09.12.17 100 (В) 10 км    4/0 верхняя 
[Ci fib]
-15.2 -17.3 84 -15  1016.5  -0.9  757  325           
00 10.12.17 090 (В) 10 км    ясно 
-16.6 -18.8 83 -17  1015.9  -0.6  757  326           
03 10.12.17 100 (В) 10 км    ясно 
-18.3 -20.6 82 -19  1016.3  0.4  757  329  -18.3      28  равномерный
сухой снег
100% 
06 10.12.17 170 (Ю) 10 км    10/0 средняя 
[Ac As]
-16.5 -19 81 -17  1017  0.7  758  326  -18.9         
09 10.12.17 130 (ЮВ) 10 км  слаб. снег  10/0 средняя 
[Ac As]
-13.6 -16.1 81 -14  1018.1  1.1  759  323           
12 10.12.17 110 (В) 10 км  {снег}  9/0 средняя, верхняя 
[Ac trans|Ci sp]
-15.9 -18 84 -16  1018.8  0.7  759  326           
15 10.12.17 тихо ()   10 км    10/0 верхняя 
[Cs]
-17.5 -19.7 83 -18  1020.3  1.4  760  329    -13.5  0.0     
18 10.12.17 030 (СВ) 10 км  слаб. снег  10/0 средняя 
[Ac As]
-13.5 -15.5 85 -13  1020.8  0.6  761  324           
21 10.12.17 тихо ()   10 км  {снег}  10/0 средняя 
[Ac As]
-11.5 -13.3 86 -12  1021.5  0.8  761  321           
00 11.12.17 360 (С) 10 км  слаб. снег  10/0 средняя 
[Ac As]
-11.1 -12.7 88 -11  1022.4  0.9  762  321           
03 11.12.17 030 (СВ) 10 км  слаб. снег  10/0 средняя 
[Ac As]
-12.5 -14.5 85 -15  1023.9  1.4  763  323  -17.5    0.0  28  равномерный
сухой снег
100% 
06 11.12.17 010 (С) 10 км  слаб. снег  10/0 средняя 
[Ac As]
-10.8 -12.9 84 -13  1025.7  1.9  764  322           
09 11.12.17 360 (С) 10 км  слаб. снег  10/0 средняя 
[Ac As]
-11.1 -13.3 84 -14  1027.2  1.4  765  323           
12 11.12.17 010 (С) 10 км  слаб. снег  10/0 средняя 
[Ac As]
-12.6 -14.8 84 -15  1028.7  1.5  767  325           
15 11.12.17 010 (С) 10 км  слаб. снег  10/0 средняя 
[Ac As]
-13.6 -15.6 85 -14  1030.6  1.9  768  327    -10  0.6     
18 11.12.17 тихо ()   10 км  {снег}  10/0 верхняя 
[Cs]
-17 -19.2 83 -17  1031.6  0.9  769  332           
21 11.12.17 350 (С) 10 км  слаб. снег  10/0 средняя 
[Ac As]
-14.2 -16.3 84 -14  1032.7  1.1  769  328           
00 12.12.17 350 (С) 10 км  {снег}  10/0 средняя 
[Ac As]
-18 -20.3 82 -18  1033.3  0.5  770  334           
03 12.12.17 330 (СЗ) 10 км    10/0 средняя, верхняя 
[Ac trans|Ci sp]
-19.7 -22.2 80 -20  1034.4  1.1  771  336  -19.7    0.0  28  равномерный
сухой снег
100% 
06 12.12.17 260 (З) 10 км  слаб. снег  10/0 средняя 
[As trans]
-18.4 -21 80 -19  1035  0.6  771  335  -20.4         
09 12.12.17 190 (Ю) 10 км  {снег}  9/0 средняя, верхняя 
[Ac cast|Cc]
-17.7 -20.2 81 -18  1034.6  -0.4  771  334           
Время (UTC), дата Ветер
(°,м/с) 
Видим.   Явления Облачность Т
(°С)
Тd
(°С)
f(%) Тe
(°С)
Pmin
(гПа)
dP
(гПа)
Po
(мм)
O2
(г/м3)
Тmin Tmax R s Состояние
почвы

Для получения пояснительной информации подведите курсор к названию столбца.

ПОГОДА в Угуте - архив

Всё, что Вы хотите узнать о погоде в Угуте - удобно и подробно!

Выберите нужную дату (начиная с 1 января 2015* года) и нажмите кнопку "Найти".
Будут отображены архивные сводки погоды по пункту Угут, начиная с указанной даты.


Отображать данные в формате CSV (для использования в таблицах Excel)


Внимание! Наш архив погоды предназначен исключительно для личного некоммерческого использования в познавательных целях. Если Вам необходимы официальные справки о состоянии погоды (для производственных, юридических, коммерческих и т.п. целей), обращайтесь в органы Росгидромета.

*Примечание: данная дата относится к архиву по метеостанциям СССР (Россия, СНГ, Балтия).
Архив по метеостанциям Зарубежной Европы и Азии (кроме Китая) хранится 10 дней, по другим регионам земного шара (Китай, Африка, Америка, Австралия, Океания) - 1 день.

Угут - район местоположения метеостанции


Название, широта, долгота, высота метеостанции:
Угут 60.5°ш. 74°д. 48 м над ур. моря [Российская Федерация]

Дополнительная информация

В oтличие oт бoльшинства пoгoдных сайтoв мы публикуем пoдрoбную метеoинфoрмацию в детальнoм прoфессиoнальнoм фoрмате.

Характеристики температуры и влажнoсти вoздуха измеряются на высoте 2 м в тени вдали oт зданий и деревьев.
Скoрoсть ветра измеряется на высoте 10 м (на урoвне рoста челoвека скoрoсть ветра ниже в 1.5-2 раза). Если метеoстанция нахoдится в гoрoде или в лесу, тo скoрoсть ветра занижена на 2-4 м/с пo сравнению с oткрытым местoм. Скoрoсть ветра над акватoриями крупных рек и oзёр, а также на вершинах хoлмoв на 2-5 м/с выше, чем в oбычных услoвиях.
Атмoсфернoе давление в разных тoчках местнoсти мoжет значительнo oтличаться oт давления на метеoстанции, в зависимoсти oт услoвий рельефа (при пoдъёме на 10 м давление пoнижается примернo на 1 мм рт.ст.).